Regional Weather Roundup
Issued by NWS

Home | Current Version | Previous Version | Text Only | Print | Product List | Glossary Off
Versions: 1 2 3 4 5 6 7 8 9 10 11 12 13 14 15 16 17 18 19 20 21 22 23 24 25 26 27 28 29 30 31 32 33 34 35 36 37 38 39 40 41 42 43 44 45 46 47 48 49 50

000
ASUS45 KBOI 242010
RWRID
WEATHER ROUNDUP FOR IDAHO
NATIONAL WEATHER SERVICE BOISE ID
100 PM MST SAT JAN 24 2015

NOTE: "FAIR" INDICATES FEW OR NO CLOUDS BELOW 12000 FEET
WITH NO SIGNIFICANT WEATHER AND/OR OBSTRUCTIONS TO VISIBILITY

IDZ012-014-242100-
SOUTHWEST IDAHO


CITY           SKY/WX    TMP DP  RH WIND       PRES   REMARKS
BOISE          CLOUDY    35  30  82 CALM      30.48F
CALDWELL       CLOUDY    36  27  69 SE5       30.51F WCI  32
MOUNTAIN HOME  CLOUDY    35  28  78 SE3       30.48F
$$

IDZ016-017-242100-
SOUTHCENTRAL IDAHO


CITY           SKY/WX    TMP DP  RH WIND       PRES   REMARKS
BURLEY         CLOUDY    38  30  73 NE6       30.43F WCI  33
JEROME         CLOUDY    32  29  88 NE10      30.45F WCI  24
TWIN FALLS     CLOUDY    38  32  79 N7        30.44F HAZE    WCI  33
$$

IDZ019>023-242100-
SOUTHEAST IDAHO


CITY           SKY/WX    TMP DP  RH WIND       PRES   REMARKS
IDAHO FALLS    CLOUDY    26  25  96 VRB6      30.43F FOG     WCI  19
POCATELLO      CLOUDY    29  28  96 CALM      30.46F
REXBURG        CLOUDY    25  24  96 E6        30.43F FOG     WCI  18
$$

IDZ006-010-011-018-031-032-242100-
CENTRAL IDAHO MOUNTAINS


CITY           SKY/WX    TMP DP  RH WIND       PRES   REMARKS
MCCALL         CLOUDY    35  32  88 CALM      30.39F
HAILEY         MOSUNNY   28  21  74 SE7       30.42F WCI  21
STANLEY          N/A     33  23  66 CALM      30.37F
SALMON         CLOUDY    30  21  69 CALM      30.38F
CHALLIS        CLOUDY    34  23  64 N5        30.33F WCI  30
$$

IDZ002-004-006-007-026-242100-
NORTHERN IDAHO


CITY           SKY/WX    TMP DP  RH WIND       PRES   REMARKS
LEWISTON       CLOUDY    52  43  71 E10       30.32F
LOWELL           N/A     39  37  92 CALM      30.40F
COEUR D`ALENE  CLOUDY    39  39 100 CALM      30.29F VSB<1/4
MULLAN PASS    FOG       36  36 100 NW10G22   30.27F VSB 1/4 WCI  28
$$



USA.gov is the U.S. government's official web portal to all federal, state and local government web resources and services.